Location: Ceska republika
(50.0000°N, 15.0000°E)
Time: 16:43:46
(UTC+02:00)

ISS - Pass Details

Date: 10 October 2017
Orbit: 401 x 408 km, 51.6° (Epoch: 19 October)

Event Time Altitude Azimuth Distance (km) Brightness Sun altitude
Rises 21:06:27 0° 283° (WNW) 2,329 1.3 -27.2°
Reaches altitude 10° 21:08:58 10° 264° (W) 1,467 -0.3 -27.6°
Enters shadow 21:09:44 14° 253° (WSW) 1,267 -0.8 -27.7°
